This is the latest recevied weather packets stored in our database for station/object KJ7IVE-13. If no packets are shown the sender has not sent any weather packets the latest 1 day(s).
| Time | Temp. | Humidity | Pressure | Rain* | Wind** | Luminosity | Snow |
|---|---|---|---|---|---|---|---|
| 1836274844 | 20.56° C | 10% | 1018.5 hPa | 0 mm | 0.45 m/s, 200° | 0 W/m² | - |
| 1836274542 | 21.11° C | 10% | 1018.4 hPa | 0 mm | 0.89 m/s, 204° | 0 W/m² | - |
| 1836274396 | 20.56° C | 10% | 1018.5 hPa | 0 mm | 0 m/s | 0 W/m² | - |
| 1836274241 | 21.67° C | 10% | 1018.6 hPa | 0 mm | 0 m/s | 0 W/m² | - |
| 1836273940 | 21.67° C | 10% | 1018.4 hPa | 0 mm | 0 m/s | 0 W/m² | - |
| 1778051027 | 12.78° C | 10% | 1012.4 hPa | 0 mm | 2.68 m/s, 203° | 0 W/m² | - |
| 1778050723 | 12.78° C | 10% | 1012.3 hPa | 0 mm | 2.24 m/s, 148° | 0 W/m² | - |
| 1778050422 | 12.78° C | 10% | 1012.6 hPa | 0 mm | 4.02 m/s, 146° | 0 W/m² | - |
| 1778050118 | 12.78° C | 10% | 1012.5 hPa | 0 mm | 1.79 m/s, 159° | 0 W/m² | - |
| 1778049813 | 12.78° C | 10% | 1012.5 hPa | 0 mm | 2.68 m/s, 154° | 0 W/m² | - |
| 1778049511 | 12.78° C | 10% | 1012.3 hPa | 0 mm | 3.13 m/s, 120° | 0 W/m² | - |
| 1778049208 | 12.78° C | 10% | 1012 hPa | 0 mm | 1.79 m/s, 153° | 0 W/m² | - |
| 1778048906 | 12.78° C | 10% | 1012 hPa | 0 mm | 1.79 m/s, 128° | 0 W/m² | - |
| 1778048604 | 12.78° C | 10% | 1012.2 hPa | 0 mm | 1.79 m/s, 135° | 0 W/m² | - |
| 1778048300 | 12.78° C | 10% | 1011.9 hPa | 0 mm | 1.34 m/s, 157° | 0 W/m² | - |
| 1778047997 | 12.78° C | 10% | 1012.2 hPa | 0 mm | 2.24 m/s, 186° | 0 W/m² | - |
| 1778047695 | 12.78° C | 10% | 1011.9 hPa | 0 mm | 1.34 m/s, 171° | 0 W/m² | - |
| 1778047393 | 12.78° C | 10% | 1011.9 hPa | 0 mm | 3.13 m/s, 171° | 0 W/m² | - |
| 1778047089 | 13.33° C | 10% | 1012.3 hPa | 0 mm | 0.89 m/s, 190° | 0 W/m² | - |
| 1778046786 | 13.33° C | 10% | 1012.2 hPa | 0 mm | 0.89 m/s, 175° | 0 W/m² | - |
| 1778046483 | 13.33° C | 10% | 1011.8 hPa | 0 mm | 0.89 m/s, 166° | 0 W/m² | - |
| 1778046179 | 13.33° C | 10% | 1011.9 hPa | 0 mm | 1.34 m/s, 149° | 0 W/m² | - |
| 1778045875 | 13.89° C | 10% | 1011.9 hPa | 0 mm | 0.45 m/s, 182° | 0 W/m² | - |
| 1778045575 | 13.89° C | 10% | 1012.2 hPa | 0 mm | 0.45 m/s, 190° | 0 W/m² | - |
| 1778045272 | 13.89° C | 10% | 1011.9 hPa | 0 mm | 1.79 m/s, 181° | 0 W/m² | - |
* Rain latest hour (hover to see other rain measurements)
** Current wind speed in m/s (hover to see current wind gust speed)